North Myrtle Beach, SC

9:39 AM EST on December 14, 2019 (GMT -0500)
Grand Strand

Weather History for KCRE - October, 2019

Change the Weather History Date:

Wednesday, October 23, 2019

  Actual Average Record
Temperature  
Mean Temperature 65 °F 63 °F  
Max Temperature 75 °F 73 °F 83 °F (1941)
Min Temperature 54 °F 53 °F 36 °F (1954)
Degree Days  
Heating Degree Days 0 4  
Month to date heating degree days 12 46  
Since 1 July heating degree days 12 50  
Cooling Degree Days 0 2  
Month to date cooling degree days 147 84  
Year to date cooling degree days 2330 1868  
Growing Degree Days 14 (Base 50)    
Moisture  
Dew Point 48 °F    
Average Humidity 61    
Maximum Humidity 86    
Minimum Humidity 35    
Precipitation  
Precipitation 0.00 in 0.09 in 1.70 in (2017)
Month to date precipitation 4.03 3.10  
Year to date precipitation 46.60 44.73  
Sea Level Pressure  
Sea Level Pressure 30.09 in    
Wind  
Wind Speed 6 mph (NNW)    
Max Wind Speed 15 mph    
Max Gust Speed 23 mph    
Visibility 10 miles    
Events      
T = Trace of Precipitation, MM = Missing Value Source: NWS Daily Summary

Daily Weather History Graph

Daily Weather History Graph

Search for Another Location

Airport or City:

Astronomy

Oct. 23, 2019 Rise Set
Actual Time 7:26 AM EDT 6:31 PM EDT
Civil Twilight 7:00 AM EDT 6:57 PM EDT
Nautical Twilight 6:31 AM EDT 7:26 PM EDT
Astronomical Twilight 6:02 AM EDT 7:55 PM EDT
Moon 2:03 AM EDT (10/23) 4:02 PM EDT (10/23)
Length of Visible Light 11h 56m
Length of Day
11h 05m
Waning Crescent, 27% of the Moon is Illuminated
Oct 23
Waning Crescent
Oct 27
New
Nov 4
First Quarter
Nov 12
Full
Nov 19
Last Quarter

Hourly Weather History & Observations

Time (EDT) Temp. Dew Point Humidity Pressure Visibility Wind Dir Wind Speed Gust Speed Precip Events Conditions
12:53 AM 66.0 °F 48.9 °F 54% 29.94 in 10.0 mi West 6.9 mph - N/A   Clear
1:53 AM 64.0 °F 46.9 °F 54% 29.95 in 10.0 mi West 5.8 mph - N/A   Clear
2:53 AM 62.1 °F 46.0 °F 56% 29.96 in 10.0 mi West 6.9 mph - N/A   Clear
3:53 AM 60.1 °F 46.9 °F 62% 29.97 in 10.0 mi Variable 5.8 mph - N/A   Clear
4:53 AM 59.0 °F 46.9 °F 64% 29.99 in 10.0 mi Variable 3.5 mph - N/A   Clear
5:53 AM 57.9 °F 48.0 °F 70% 30.01 in 10.0 mi NW 4.6 mph - N/A   Clear
6:53 AM 55.9 °F 48.0 °F 75% 30.03 in 10.0 mi WNW 4.6 mph - N/A   Clear
7:53 AM 55.0 °F 46.9 °F 74% 30.07 in 10.0 mi NW 4.6 mph - N/A   Clear
8:53 AM 60.1 °F 46.9 °F 62% 30.10 in 10.0 mi North 5.8 mph - N/A   Clear
9:53 AM 64.0 °F 46.0 °F 52% 30.12 in 10.0 mi North 13.8 mph 20.7 mph N/A   Clear
10:53 AM 68.0 °F 45.0 °F 43% 30.12 in 10.0 mi North 12.7 mph 20.7 mph N/A   Clear
11:53 AM 70.0 °F 45.0 °F 41% 30.12 in 10.0 mi North 12.7 mph 18.4 mph N/A   Clear
12:53 PM 72.0 °F 46.9 °F 41% 30.12 in 10.0 mi Variable 6.9 mph - N/A   Clear
1:53 PM 73.0 °F 45.0 °F 37% 30.10 in 10.0 mi NNE 9.2 mph - N/A   Clear
2:53 PM 73.9 °F 44.1 °F 34% 30.09 in 10.0 mi North 8.1 mph - N/A   Clear
3:53 PM 73.9 °F 44.1 °F 34% 30.10 in 10.0 mi North 4.6 mph - N/A   Clear
4:53 PM 73.0 °F 45.0 °F 37% 30.12 in 10.0 mi NNE 6.9 mph - N/A   Clear
5:53 PM 66.9 °F 51.1 °F 57% 30.14 in 10.0 mi North 3.5 mph - N/A   Clear
6:53 PM 62.1 °F 54.0 °F 75% 30.16 in 10.0 mi Calm Calm - N/A   Clear
7:53 PM 59.0 °F 53.1 °F 81% 30.18 in 10.0 mi Calm Calm - N/A   Clear
8:53 PM 57.0 °F 53.1 °F 87% 30.19 in 10.0 mi Calm Calm - N/A   Clear
9:53 PM 55.9 °F 52.0 °F 87% 30.21 in 10.0 mi Calm Calm - N/A   Clear
10:53 PM 55.0 °F 52.0 °F 89% 30.22 in 10.0 mi NE 3.5 mph - N/A   Clear
11:53 PM 55.9 °F 51.1 °F 84% 30.22 in 10.0 mi NE 4.6 mph - N/A   Clear